DB5ZQ Weather Reports


time (UTC)temp
C
wind
direction
speed
KPH
gust
KPH
rain 1hr
cm
rain 24hr
cm
rain mn
cm
humidity
%
barometer
mb
20190419050512 14 150 0.0 3.2 0.00 0.00 0.00 52 1008.4
20190419050012 14 139 0.0 3.2 0.00 0.00 0.00 52 1008.4
20190419045511 14 125 0.0 4.8 0.00 0.00 0.00 51 1008.3
20190419045011 14 112 0.0 1.6 0.00 0.00 0.00 51 1008.3
20190419044511 14 115 0.0 3.2 0.00 0.00 0.00 51 1008.2
20190419044010 14 227 0.0 1.6 0.00 0.00 0.00 51 1008.2
20190419043510 14 246 0.0 0.0 0.00 0.00 0.00 51 1008.2
20190419043010 14 246 0.0 4.8 0.00 0.00 0.00 51 1008.2
20190419042510 14 201 0.0 0.0 0.00 0.00 0.00 51 1008.1
20190419042009 14 201 0.0 0.0 0.00 0.00 0.00 51 1008.1
20190419041509 14 201 0.0 6.4 0.00 0.00 0.00 51 1008.0
20190419041009 14 115 0.0 0.0 0.00 0.00 0.00 51 1008.0
20190419040508 14 115 0.0 0.0 0.00 0.00 0.00 50 1008.0
20190419040008 15 115 0.0 1.6 0.00 0.00 0.00 50 1007.9
20190419035508 15 90 0.0 0.0 0.00 0.00 0.00 50 1007.9
20190419035008 15 90 0.0 0.0 0.00 0.00 0.00 50 1007.9
20190419034507 15 90 0.0 0.0 0.00 0.00 0.00 49 1007.9
20190419034007 15 90 0.0 0.0 0.00 0.00 0.00 49 1007.8
20190419033507 15 90 0.0 3.2 0.00 0.00 0.00 49 1007.8
20190419033006 15 243 0.0 0.0 0.00 0.00 0.00 49 1007.8
20190419032506 15 243 0.0 1.6 0.00 0.00 0.00 49 1007.8
20190419032006 15 223 0.0 0.0 0.00 0.00 0.00 49 1007.7
20190419031506 15 223 0.0 0.0 0.00 0.00 0.00 49 1007.7
20190419031005 15 223 0.0 0.0 0.00 0.00 0.00 49 1007.7
20190419030505 15 233 0.0 1.6 0.00 0.00 0.00 49 1007.7
20190419030005 15 233 1.6 1.6 0.00 0.00 0.00 49 1007.6
20190419025504 15 129 0.0 1.6 0.00 0.00 0.00 48 1007.6
20190419025004 15 202 0.0 0.0 0.00 0.00 0.00 48 1007.6
20190419024504 15 284 0.0 3.2 0.00 0.00 0.00 48 1007.5
20190419024004 15 177 0.0 4.8 0.00 0.00 0.00 48 1007.5
20190419023503 15 146 0.0 0.0 0.00 0.00 0.00 48 1007.5
20190419023003 15 146 0.0 0.0 0.00 0.00 0.00 48 1007.4
20190419022503 15 146 0.0 1.6 0.00 0.00 0.00 48 1007.4
20190419022002 15 151 0.0 1.6 0.00 0.00 0.00 48 1007.4
20190419021502 15 295 0.0 3.2 0.00 0.00 0.00 48 1007.4
20190419021002 15 289 0.0 0.0 0.00 0.00 0.00 47 1007.4
20190419020502 15 289 0.0 0.0 0.00 0.00 0.00 47 1007.4
20190419020001 15 289 0.0 0.0 0.00 0.00 0.00 47 1007.4
20190419015501 15 289 0.0 0.0 0.00 0.00 0.00 47 1007.4
20190419015001 15 289 0.0 0.0 0.00 0.00 0.00 47 1007.4
20190419014500 15 289 0.0 0.0 0.00 0.00 0.00 47 1007.4
20190419014000 15 289 0.0 3.2 0.00 0.00 0.00 47 1007.4
20190419013500 15 146 0.0 0.0 0.00 0.00 0.00 47 1007.4
20190419013000 15 146 0.0 0.0 0.00 0.00 0.00 46 1007.4
20190419012459 15 146 0.0 0.0 0.00 0.00 0.00 46 1007.4
20190419011959 15 146 0.0 0.0 0.00 0.00 0.00 46 1007.3
20190419011459 15 146 0.0 1.6 0.00 0.00 0.00 46 1007.3
20190419010959 15 282 0.0 0.0 0.00 0.00 0.00 46 1007.3
20190419010458 15 282 0.0 0.0 0.00 0.00 0.00 46 1007.3
20190419005958 15 282 0.0 0.0 0.00 0.00 0.00 46 1007.4
20190419005458 15 282 0.0 0.0 0.00 0.00 0.00 46 1007.4
20190419004957 15 282 0.0 3.2 0.00 0.00 0.00 46 1007.3
20190419004457 16 291 3.2 3.2 0.00 0.00 0.00 46 1007.3
20190419003957 16 227 0.0 0.0 0.00 0.00 0.00 46 1007.3
20190419003457 16 227 0.0 0.0 0.00 0.00 0.00 46 1007.3
20190419002956 16 227 0.0 0.0 0.00 0.00 0.00 45 1007.3
20190419002456 16 227 0.0 0.0 0.00 0.00 0.00 45 1007.3
20190419001956 16 227 0.0 3.2 0.00 0.00 0.00 45 1007.3
20190419001455 16 261 0.0 0.0 0.00 0.00 0.00 44 1007.3
20190419000955 16 261 0.0 0.0 0.00 0.00 0.00 44 1007.3
20190419000455 16 261 0.0 0.0 0.00 0.00 0.00 44 1007.3
20190418235955 16 261 0.0 0.0 0.00 0.00 0.00 44 1007.3
20190418235454 16 261 0.0 0.0 0.00 0.00 0.00 44 1007.3
20190418234954 16 261 0.0 3.2 0.00 0.00 0.00 43 1007.3
20190418234454 16 253 0.0 0.0 0.00 0.00 0.00 43 1007.2
20190418233954 16 253 0.0 0.0 0.00 0.00 0.00 42 1007.2
20190418233453 16 253 0.0 3.2 0.00 0.00 0.00 42 1007.2
20190418232953 17 292 0.0 1.6 0.00 0.00 0.00 42 1007.3
20190418232453 17 243 0.0 0.0 0.00 0.00 0.00 42 1007.3
20190418231952 17 248 0.0 1.6 0.00 0.00 0.00 42 1007.2
20190418231452 17 288 0.0 1.6 0.00 0.00 0.00 42 1007.3
20190418230952 17 227 0.0 0.0 0.00 0.00 0.00 41 1007.3
20190418230451 17 227 0.0 0.0 0.00 0.00 0.00 41 1007.4
20190418225951 17 227 0.0 0.0 0.00 0.00 0.00 41 1007.3
20190418225451 17 227 0.0 0.0 0.00 0.00 0.00 41 1007.3
20190418224951 17 227 0.0 0.0 0.00 0.00 0.00 41 1007.3
20190418224450 17 227 0.0 0.0 0.00 0.00 0.00 41 1007.3
20190418223950 17 227 0.0 0.0 0.00 0.00 0.00 40 1007.2
20190418223450 17 227 0.0 0.0 0.00 0.00 0.00 40 1007.3
20190418222949 17 227 0.0 0.0 0.00 0.00 0.00 40 1007.3
20190418222449 17 227 0.0 0.0 0.00 0.00 0.00 40 1007.2
20190418221949 17 227 0.0 3.2 0.00 0.00 0.00 40 1007.2
20190418221449 17 174 0.0 0.0 0.00 0.00 0.00 40 1007.2
20190418220948 17 174 0.0 0.0 0.00 0.00 0.00 40 1007.2
20190418220449 17 174 0.0 0.0 0.00 0.00 0.00 40 1007.1
20190418215948 18 174 0.0 1.6 0.00 0.00 0.00 40 1007.1
20190418215447 18 336 0.0 0.0 0.00 0.00 0.00 40 1007.0
20190418214947 18 133 0.0 0.0 0.00 0.00 0.00 40 1007.0
20190418214447 18 133 0.0 0.0 0.00 0.00 0.00 39 1007.0
20190418213947 18 133 0.0 0.0 0.00 0.00 0.00 39 1007.0
20190418213446 18 133 0.0 0.0 0.00 0.00 0.00 39 1006.9
20190418212946 18 133 0.0 0.0 0.00 0.00 0.00 39 1006.9
20190418212446 18 133 0.0 0.0 0.00 0.00 0.00 39 1006.8
20190418211945 18 133 0.0 0.0 0.00 0.00 0.00 39 1006.8
20190418211445 18 209 0.0 0.0 0.00 0.00 0.00 39 1006.7
20190418210945 18 209 0.0 0.0 0.00 0.00 0.00 39 1006.7
20190418210445 18 209 0.0 0.0 0.00 0.00 0.00 38 1006.6
20190418205944 18 209 0.0 0.0 0.00 0.00 0.00 38 1006.6
20190418205444 18 209 0.0 0.0 0.00 0.00 0.00 38 1006.5
20190418204944 18 209 0.0 0.0 0.00 0.00 0.00 38 1006.5
20190418204443 19 209 0.0 1.6 0.00 0.00 0.00 38 1006.4
20190418203943 19 209 0.0 0.0 0.00 0.00 0.00 37 1006.4
20190418203443 19 209 0.0 1.6 0.00 0.00 0.00 37 1006.3
20190418202943 20 232 0.0 0.0 0.00 0.00 0.00 37 1006.3
20190418202442 20 232 0.0 0.0 0.00 0.00 0.00 37 1006.3
20190418201942 19 232 0.0 0.0 0.00 0.00 0.00 36 1006.3
20190418201442 20 232 0.0 1.6 0.00 0.00 0.00 36 1006.2
20190418200941 20 258 0.0 0.0 0.00 0.00 0.00 35 1006.2
20190418200441 20 258 0.0 0.0 0.00 0.00 0.00 35 1006.1
20190418195941 20 258 0.0 0.0 0.00 0.00 0.00 34 1006.1
20190418195441 20 258 0.0 0.0 0.00 0.00 0.00 34 1006.1
20190418194940 20 258 0.0 0.0 0.00 0.00 0.00 34 1006.1
20190418194440 20 258 0.0 0.0 0.00 0.00 0.00 33 1006.0
20190418193940 20 258 0.0 0.0 0.00 0.00 0.00 33 1006.0
20190418193440 21 258 0.0 0.0 0.00 0.00 0.00 33 1006.0
20190418192939 21 258 0.0 0.0 0.00 0.00 0.00 32 1006.0
20190418192439 21 258 0.0 0.0 0.00 0.00 0.00 32 1005.9
20190418191939 21 258 0.0 0.0 0.00 0.00 0.00 32 1005.8
20190418191438 21 258 0.0 0.0 0.00 0.00 0.00 32 1005.8
20190418190938 21 258 0.0 0.0 0.00 0.00 0.00 31 1005.8
20190418190438 22 258 0.0 0.0 0.00 0.00 0.00 30 1005.7
20190418185938 22 258 0.0 0.0 0.00 0.00 0.00 30 1005.7
20190418185437 22 258 0.0 0.0 0.00 0.00 0.00 30 1005.7
20190418184937 22 258 0.0 0.0 0.00 0.00 0.00 29 1005.6
20190418184437 22 258 0.0 0.0 0.00 0.00 0.00 29 1005.5
20190418183936 22 258 0.0 0.0 0.00 0.00 0.00 28 1005.5
20190418183436 23 258 0.0 0.0 0.00 0.00 0.00 28 1005.4
20190418182936 23 258 0.0 0.0 0.00 0.00 0.00 27 1005.3
20190418182436 23 258 0.0 1.6 0.00 0.00 0.00 27 1005.3
20190418181936 23 298 0.0 0.0 0.00 0.00 0.00 27 1005.3
20190418181435 23 298 0.0 0.0 0.00 0.00 0.00 26 1005.2
20190418180935 24 298 0.0 3.2 0.00 0.00 0.00 26 1005.2
20190418180434 24 258 0.0 3.2 0.00 0.00 0.00 26 1005.1
20190418175934 25 305 0.0 0.0 0.00 0.00 0.00 26 1005.1
20190418175434 25 305 0.0 3.2 0.00 0.00 0.00 25 1005.0
20190418174934 25 254 1.6 3.2 0.00 0.00 0.00 24 1005.0
20190418174433 25 137 0.0 1.6 0.00 0.00 0.00 24 1004.9
20190418173933 26 275 0.0 8.0 0.00 0.00 0.00 23 1004.9
20190418173433 26 112 0.0 8.0 0.00 0.00 0.00 22 1004.8
20190418172932 27 317 0.0 8.0 0.00 0.00 0.00 21 1004.8
20190418172432 27 247 0.0 3.2 0.00 0.00 0.00 20 1004.8
20190418171932 28 262 0.0 3.2 0.00 0.00 0.00 19 1004.8
20190418171432 28 240 0.0 9.7 0.00 0.00 0.00 18 1004.7
20190418170931 29 255 0.0 4.8 0.00 0.00 0.00 18 1004.7
20190418170431 30 338 1.6 9.7 0.00 0.00 0.00 18 1004.7
20190418165931 30 265 4.8 8.0 0.00 0.00 0.00 17 1004.7
20190418165430 31 270 0.0 9.7 0.00 0.00 0.00 16 1004.6
20190418164930 31 319 0.0 3.2 0.00 0.00 0.00 16 1004.6
20190418164430 31 278 1.6 9.7 0.00 0.00 0.00 15 1004.5
20190418163930 32 246 0.0 9.7 0.00 0.00 0.00 15 1004.5
20190418163429 32 243 3.2 9.7 0.00 0.00 0.00 14 1004.5
20190418162929 32 244 0.0 8.0 0.00 0.00 0.00 15 1004.6
20190418162429 32 260 0.0 8.0 0.00 0.00 0.00 14 1004.6
20190418161928 32 195 0.0 6.4 0.00 0.00 0.00 14 1004.5
20190418161428 33 154 0.0 6.4 0.00 0.00 0.00 14 1004.5
20190418160928 33 278 4.8 8.0 0.00 0.00 0.00 13 1004.5
20190418160428 34 2 1.6 6.4 0.00 0.00 0.00 13 1004.5
20190418155927 33 255 1.6 12.9 0.00 0.00 0.00 13 1004.5
20190418155427 35 236 0.0 11.3 0.00 0.00 0.00 12 1004.4
20190418154927 35 95 3.2 9.7 0.00 0.00 0.00 12 1004.5
20190418154427 35 277 8.0 11.3 0.00 0.00 0.00 12 1004.4
20190418153926 36 268 0.0 9.7 0.00 0.00 0.00 11 1004.4
20190418153426 36 262 1.6 6.4 0.00 0.00 0.00 11 1004.3
20190418152926 36 264 0.0 4.8 0.00 0.00 0.00 11 1004.4
20190418152425 36 275 0.0 14.5 0.00 0.00 0.00 11 1004.4
20190418151925 36 199 1.6 11.3 0.00 0.00 0.00 10 1004.4
20190418151425 36 251 0.0 9.7 0.00 0.00 0.00 11 1004.4
20190418150925 36 126 4.8 14.5 0.00 0.00 0.00 11 1004.4
20190418150424 37 137 4.8 11.3 0.00 0.00 0.00 10 1004.3
20190418145924 37 151 3.2 16.1 0.00 0.00 0.00 10 1004.4
20190418145424 37 296 1.6 12.9 0.00 0.00 0.00 10 1004.3
20190418144923 36 271 0.0 9.7 0.00 0.00 0.00 11 1004.3
20190418144423 36 230 0.0 9.7 0.00 0.00 0.00 11 1004.3
20190418143923 36 257 1.6 9.7 0.00 0.00 0.00 11 1004.4
20190418143423 36 284 4.8 12.9 0.00 0.00 0.00 11 1004.3
20190418142922 36 80 0.0 11.3 0.00 0.00 0.00 11 1004.4
20190418142422 36 4 0.0 6.4 0.00 0.00 0.00 11 1004.3
20190418141922 35 234 0.0 11.3 0.00 0.00 0.00 12 1004.5
20190418141421 34 215 1.6 11.3 0.00 0.00 0.00 13 1004.4
20190418140921 33 286 0.0 8.0 0.00 0.00 0.00 15 1004.4
20190418140421 32 323 1.6 9.7 0.00 0.00 0.00 16 1004.5
20190418135921 31 286 1.6 14.5 0.00 0.00 0.00 16 1004.5
20190418135420 31 241 1.6 12.9 0.00 0.00 0.00 16 1004.5
20190418134920 31 299 1.6 11.3 0.00 0.00 0.00 16 1004.6
20190418134420 31 199 0.0 14.5 0.00 0.00 0.00 17 1004.6
20190418133919 31 278 0.0 8.0 0.00 0.00 0.00 17 1004.6
20190418133419 30 188 1.6 12.9 0.00 0.00 0.00 17 1004.7
20190418132919 30 323 1.6 12.9 0.00 0.00 0.00 17 1004.7
20190418132419 30 281 12.9 12.9 0.00 0.00 0.00 18 1004.7
20190418131918 30 284 0.0 9.7 0.00 0.00 0.00 18 1004.7
20190418131418 28 261 0.0 12.9 0.00 0.00 0.00 20 1004.8
20190418130918 29 267 4.8 16.1 0.00 0.00 0.00 18 1004.8
20190418130417 28 268 4.8 12.9 0.00 0.00 0.00 19 1004.8
20190418125917 29 116 1.6 12.9 0.00 0.00 0.00 18 1005.0
20190418125417 30 303 1.6 19.3 0.00 0.00 0.00 18 1004.9
20190418124917 30 267 3.2 12.9 0.00 0.00 0.00 19 1004.9
20190418124416 30 307 3.2 9.7 0.00 0.00 0.00 18 1005.0
20190418123916 30 306 6.4 9.7 0.00 0.00 0.00 18 1004.9
20190418123416 29 343 0.0 14.5 0.00 0.00 0.00 19 1005.0
20190418122915 29 9 6.4 9.7 0.00 0.00 0.00 21 1005.0
20190418122415 28 288 9.7 9.7 0.00 0.00 0.00 20 1005.0
20190418121915 28 268 1.6 8.0 0.00 0.00 0.00 21 1005.0
20190418121415 28 187 0.0 14.5 0.00 0.00 0.00 21 1005.1
20190418120914 27 271 3.2 12.9 0.00 0.00 0.00 23 1005.1
20190418120414 26 267 1.6 14.5 0.00 0.00 0.00 24 1005.1
20190418115914 26 189 0.0 12.9 0.00 0.00 0.00 25 1005.2
20190418115413 26 270 0.0 11.3 0.00 0.00 0.00 26 1005.2
20190418114913 26 282 8.0 8.0 0.00 0.00 0.00 26 1005.2
20190418114413 26 275 0.0 8.0 0.00 0.00 0.00 27 1005.3
20190418113913 25 109 1.6 12.9 0.00 0.00 0.00 28 1005.4
20190418113412 25 222 1.6 8.0 0.00 0.00 0.00 28 1005.5
20190418112912 25 206 1.6 8.0 0.00 0.00 0.00 29 1005.6
20190418112412 25 60 0.0 9.7 0.00 0.00 0.00 30 1005.5
20190418111912 24 265 9.7 12.9 0.00 0.00 0.00 31 1005.6
20190418111411 23 270 0.0 8.0 0.00 0.00 0.00 32 1005.6
20190418110911 23 198 0.0 9.7 0.00 0.00 0.00 32 1005.6
20190418110411 23 149 0.0 8.0 0.00 0.00 0.00 32 1005.7
20190418105910 23 175 0.0 9.7 0.00 0.00 0.00 32 1005.8
20190418105410 23 253 0.0 9.7 0.00 0.00 0.00 35 1005.8
20190418104910 22 132 0.0 11.3 0.00 0.00 0.00 34 1005.8
20190418104409 22 206 4.8 9.7 0.00 0.00 0.00 35 1005.8
20190418103909 22 120 0.0 6.4 0.00 0.00 0.00 36 1005.8
20190418103409 22 299 0.0 9.7 0.00 0.00 0.00 36 1005.9
20190418102909 21 241 3.2 12.9 0.00 0.00 0.00 36 1005.9
20190418102408 21 271 0.0 4.8 0.00 0.00 0.00 36 1005.9
20190418101908 21 229 0.0 6.4 0.00 0.00 0.00 38 1006.0
20190418101408 20 272 3.2 6.4 0.00 0.00 0.00 39 1006.0
20190418100907 20 39 0.0 12.9 0.00 0.00 0.00 39 1006.0
20190418100407 20 244 0.0 4.8 0.00 0.00 0.00 39 1006.0
20190418095907 20 198 3.2 9.7 0.00 0.00 0.00 40 1006.2
20190418095407 20 116 1.6 9.7 0.00 0.00 0.00 40 1006.2
20190418094906 20 246 0.0 8.0 0.00 0.00 0.00 41 1006.2
20190418094406 20 254 4.8 11.3 0.00 0.00 0.00 41 1006.3
20190418093906 19 189 0.0 11.3 0.00 0.00 0.00 42 1006.3
20190418093406 19 257 6.4 12.9 0.00 0.00 0.00 43 1006.3
20190418092905 18 295 4.8 9.7 0.00 0.00 0.00 44 1006.4
20190418092405 18 217 1.6 14.5 0.00 0.00 0.00 44 1006.4
20190418091905 18 222 0.0 6.4 0.00 0.00 0.00 44 1006.4
20190418091405 18 251 1.6 8.0 0.00 0.00 0.00 45 1006.3
20190418090904 18 271 0.0 6.4 0.00 0.00 0.00 45 1006.4
20190418090404 18 261 3.2 9.7 0.00 0.00 0.00 45 1006.4
20190418085904 18 239 3.2 11.3 0.00 0.00 0.00 46 1006.4
20190418085403 18 237 0.0 6.4 0.00 0.00 0.00 47 1006.5
20190418084903 17 143 1.6 8.0 0.00 0.00 0.00 47 1006.4
20190418084403 17 147 1.6 8.0 0.00 0.00 0.00 47 1006.5
20190418083902 17 260 3.2 8.0 0.00 0.00 0.00 48 1006.5
20190418083402 17 341 1.6 9.7 0.00 0.00 0.00 48 1006.5
20190418082902 16 313 0.0 8.0 0.00 0.00 0.00 49 1006.5
20190418082402 16 92 0.0 4.8 0.00 0.00 0.00 52 1006.6
20190418081901 16 281 0.0 12.9 0.00 0.00 0.00 52 1006.6
20190418081401 16 268 0.0 8.0 0.00 0.00 0.00 53 1006.6
20190418080901 16 244 0.0 9.7 0.00 0.00 0.00 54 1006.6
20190418080400 16 289 0.0 9.7 0.00 0.00 0.00 54 1006.6
20190418075900 16 281 0.0 8.0 0.00 0.00 0.00 54 1006.7
20190418075400 15 247 3.2 12.9 0.00 0.00 0.00 55 1006.6
20190418074900 15 272 4.8 4.8 0.00 0.00 0.00 55 1006.7
20190418074359 15 244 1.6 8.0 0.00 0.00 0.00 55 1006.7
20190418073859 15 293 0.0 8.0 0.00 0.00 0.00 56 1006.7
20190418073359 15 97 0.0 8.0 0.00 0.00 0.00 56 1006.6
20190418072859 15 118 0.0 6.4 0.00 0.00 0.00 56 1006.7
20190418072358 15 184 1.6 9.7 0.00 0.00 0.00 57 1006.7
20190418071858 15 270 0.0 3.2 0.00 0.00 0.00 57 1006.7
20190418071358 14 258 0.0 4.8 0.00 0.00 0.00 58 1006.7
20190418070857 14 175 1.6 3.2 0.00 0.00 0.00 58 1006.7
20190418070357 14 244 0.0 4.8 0.00 0.00 0.00 59 1006.7
20190418065857 14 327 0.0 3.2 0.00 0.00 0.00 58 1006.7
20190418065356 13 225 1.6 3.2 0.00 0.00 0.00 58 1006.6
20190418064856 13 206 0.0 4.8 0.00 0.00 0.00 59 1006.7
20190418064356 13 133 0.0 1.6 0.00 0.00 0.00 59 1006.8
20190418063856 13 133 0.0 4.8 0.00 0.00 0.00 59 1006.7
20190418063355 13 154 0.0 0.0 0.00 0.00 0.00 59 1006.7
20190418062855 13 154 0.0 0.0 0.00 0.00 0.00 59 1006.7
20190418062355 13 154 0.0 0.0 0.00 0.00 0.00 59 1006.7
20190418061854 13 154 0.0 3.2 0.00 0.00 0.00 59 1006.7
20190418061354 13 123 0.0 0.0 0.00 0.00 0.00 60 1006.7
20190418060854 13 288 0.0 0.0 0.00 0.00 0.00 60 1006.7
20190418060354 13 288 0.0 0.0 0.00 0.00 0.00 60 1006.6
20190418055853 13 70 0.0 0.0 0.00 0.00 0.00 60 1006.6
20190418055353 13 70 0.0 1.6 0.00 0.00 0.00 60 1006.6
20190418054853 12 70 0.0 1.6 0.00 0.00 0.00 60 1006.5
20190418054353 13 168 0.0 0.0 0.00 0.00 0.00 59 1006.5
20190418053852 13 168 0.0 4.8 0.00 0.00 0.00 59 1006.5
20190418053352 13 151 0.0 0.0 0.00 0.00 0.00 59 1006.5
20190418052852 13 153 0.0 0.0 0.00 0.00 0.00 59 1006.5
20190418052351 13 153 0.0 0.0 0.00 0.00 0.00 59 1006.4
20190418051851 13 153 0.0 0.0 0.00 0.00 0.00 59 1006.4
20190418051351 13 153 0.0 0.0 0.00 0.00 0.00 59 1006.4
20190418050850 13 153 0.0 0.0 0.00 0.00 0.00 59 1006.3